P/2005 L1 ( McNaught )

Japanese version
Home page
Updated on March 13, 2011

---------------------------------------------------------------------

* Profile

Discovery Date June 2, 2005
Magnitude 16.7 mag
Discoverer R. H. McNaught (Siding Spring)

* Orbital Elements

Epoch 2005 Dec. 16.0 TT = JDT 2453720.5
T 2005 Dec. 13.30445 TT                                 MPC
q   3.1427182            (2000.0)            P               Q
n   0.12441338     Peri.  149.60174     +0.31091058     +0.94621486
a   3.9739706      Node   138.32784     -0.89686586     +0.32325368
e   0.2091743      Incl.    7.73713     -0.31458899     +0.01358287
P   7.92
From 241 observations 2005 May 16-Sept. 15, mean residual 0".5.

* Finding Charts

* Magnitudes Graph

        m1 = 10.0 + 5 log d + 10.0 log r

---------------------------------------------------------------------

The orbital elements are published on M.P.E.C. 2011-E57.
The charts are made with StellaNavigator Ver.2.0 for Windows (AstroArts / ASCII).
The magnitudes graphs are made with Comet for Windows.

---------------------------------------------------------------------

Copyright(C) Seiichi Yoshida (comet@aerith.net). All rights reserved.